GFSNE_850_thetae_021.txt.gz
Theta_e
288 288 288 288 289 289 288 287 287 289 291 291 289 290 290 291 290 291 291 292 292 293 294 298 300 299 300 299 299 298 299 300 307 309 309 307 305 304
287 288 288 288 287 287 286 286 286 285 287 288 288 289 289 288 288 289 290 291 291 291 292 295 297 298 298 297 299 302 302 299 302 307 307 308 305 304
288 288 287 287 286 286 285 285 285 285 284 285 287 288 289 288 288 287 289 290 290 290 291 292 294 296 296 296 298 298 297 303 305 306 307 306 304 303
287 287 287 287 286 284 283 283 283 283 284 284 285 288 288 288 288 288 287 288 289 289 289 289 291 294 295 295 295 295 299 296 298 303 305 305 304 302
287 287 286 284 283 283 282 282 281 283 284 285 285 286 286 287 287 287 286 287 286 286 288 288 289 291 293 294 294 294 294 296 295 296 299 299 300 300
286 284 283 283 283 282 281 280 281 282 283 284 284 285 286 286 286 286 286 285 285 285 287 288 288 290 291 292 292 293 294 294 293 294 293 294 297 298
284 283 282 282 281 281 280 280 280 281 281 283 283 284 285 286 286 285 285 284 284 284 285 288 290 290 290 291 292 292 293 293 293 293 293 293 293 293
282 282 281 280 280 279 279 280 280 281 281 281 282 282 284 285 285 285 285 284 284 284 284 285 288 289 290 290 291 291 291 292 292 293 293 293 292 292
280 279 279 279 279 279 279 279 280 281 281 281 281 281 282 283 284 283 284 283 283 283 284 284 285 287 289 289 289 290 291 291 292 292 292 292 291 291
279 279 278 279 279 279 279 280 280 281 281 281 281 282 282 282 282 282 283 283 283 283 284 284 284 285 286 287 289 289 289 289 290 290 291 291 291 292
279 279 278 278 279 280 280 280 281 280 280 280 280 281 282 283 283 283 283 283 283 283 284 284 284 284 284 285 285 286 287 287 288 288 288 288 288 288
279 279 278 278 279 279 279 280 280 281 280 280 280 280 280 281 282 283 283 283 283 283 282 282 283 283 283 284 285 285 285 286 286 286 287 287 287 287
278 278 278 278 278 279 279 279 280 280 281 280 281 281 281 281 281 281 281 282 282 282 282 282 282 283 284 284 285 286 285 285 286 287 286 286 286 287
277 277 277 277 278 278 278 278 279 280 280 280 281 281 282 282 282 283 283 283 283 284 284 284 282 283 283 284 285 285 287 287 286 286 287 287 287 287
277 277 277 277 276 277 278 278 278 279 279 280 280 281 282 283 283 284 284 285 285 285 285 285 284 284 284 284 285 286 286 286 286 286 287 287 287 287
276 276 277 276 276 276 277 278 278 278 279 280 280 281 282 283 284 284 285 286 286 286 286 286 285 285 285 285 285 286 286 286 286 286 286 287 287 287
275 275 276 276 276 276 276 277 277 278 279 279 280 281 282 282 283 284 285 286 286 286 286 286 287 286 286 286 286 286 286 286 286 286 286 287 286 286
275 275 275 275 274 275 275 276 276 277 278 279 280 280 281 281 282 283 284 285 285 285 285 286 287 287 286 286 286 286 286 286 286 286 286 286 286 286
275 274 274 274 274 274 274 275 274 275 277 278 279 280 280 281 281 281 282 283 283 284 285 285 286 286 286 285 286 286 286 286 286 286 285 285 285 286
277 275 274 274 274 274 273 273 273 274 276 277 278 279 279 280 280 280 281 281 281 282 283 283 284 285 285 285 285 285 286 286 286 286 285 285 285 285
277 277 275 274 274 273 273 273 273 273 274 277 277 278 278 279 279 279 279 279 280 280 281 282 283 283 283 283 284 284 284 285 284 284 284 285 285 285
276 276 277 276 275 274 274 274 274 274 274 274 275 276 277 278 278 278 278 278 278 279 280 281 282 282 282 282 282 283 283 283 283 283 283 283 283 284
277 276 275 275 275 275 274 274 274 274 274 273 274 274 275 275 277 277 277 277 277 278 279 280 281 281 282 282 282 282 283 282 282 282 282 282 282 282

GFSNE_850_thetae_024.txt.gz
Theta_e
287 287 287 287 287 287 287 286 285 285 285 286 286 287 287 288 288 290 290 290 291 291 291 291 291 296 298 301 302 302 302 303 301 303 308 309 307 303
287 287 287 287 287 287 287 286 285 284 283 284 285 285 285 286 287 288 287 287 289 290 290 290 290 292 296 299 299 300 301 303 300 302 306 309 308 306
288 288 287 287 287 287 285 284 283 282 282 283 283 284 284 285 288 288 288 287 287 288 290 289 290 290 291 296 298 298 301 302 303 302 303 308 307 307
288 288 287 287 286 284 283 283 282 282 281 281 282 283 283 284 287 288 287 287 287 287 287 288 289 289 289 293 296 297 297 302 304 303 303 305 306 307
287 287 286 284 283 283 282 282 281 281 280 282 282 282 283 284 285 286 286 286 286 286 286 286 286 288 289 291 294 294 296 296 301 299 300 303 303 304
286 284 283 282 282 281 281 281 280 280 280 280 281 282 284 283 285 286 286 286 286 285 285 285 286 287 289 290 292 293 294 294 295 295 294 295 295 295
283 282 281 280 280 280 280 280 280 279 280 280 280 281 282 282 284 285 285 285 285 285 284 284 286 289 289 290 290 291 292 294 294 293 293 293 294 293
281 281 280 280 279 279 279 279 279 280 280 281 280 281 281 281 282 283 284 284 284 284 284 284 284 288 289 291 291 290 291 292 293 293 293 292 293 292
281 280 279 279 279 279 279 279 280 280 280 280 281 281 281 282 281 282 282 283 283 283 283 283 283 285 288 288 290 291 291 291 291 292 293 293 293 293
280 279 279 279 279 279 280 280 280 280 280 280 280 280 280 281 282 282 282 282 282 283 283 283 283 284 284 287 289 288 289 290 291 291 292 293 292 292
280 279 278 278 278 279 279 279 279 280 280 280 280 280 280 280 281 282 282 282 282 282 283 283 283 283 284 284 285 286 289 288 289 289 290 290 291 291
279 279 278 278 278 278 278 278 279 279 279 280 280 280 280 280 280 281 282 282 283 282 282 282 282 282 282 283 284 285 285 286 288 287 288 288 289 289
278 278 278 277 277 277 278 278 278 278 279 280 280 281 281 281 281 281 281 281 282 282 282 282 282 282 282 284 285 285 285 285 285 286 286 286 287 287
277 276 277 276 277 276 277 277 278 278 279 279 280 280 281 282 282 282 282 282 282 282 282 283 283 283 283 284 284 285 285 285 285 286 286 286 286 286
276 275 276 277 276 276 277 277 278 278 279 279 280 280 281 282 283 283 284 284 284 284 284 284 284 284 282 282 283 284 286 285 286 286 286 286 287 287
277 276 275 275 275 275 276 277 277 277 278 279 280 280 281 282 283 284 284 285 285 285 286 286 285 284 284 284 284 285 285 286 286 286 286 287 288 287
278 276 276 276 276 276 276 276 276 277 278 279 279 280 281 282 282 283 284 285 285 285 286 286 286 285 285 285 285 285 286 286 286 286 286 286 287 287
279 277 276 275 275 275 275 275 274 276 277 278 279 280 280 281 281 282 283 283 284 284 285 286 286 286 286 285 285 285 285 286 286 286 286 286 286 286
278 278 277 275 275 274 274 274 274 274 276 277 278 279 279 280 280 281 281 282 282 283 283 284 285 286 286 286 286 286 286 286 286 286 286 286 285 285
277 278 278 276 275 275 274 274 274 274 274 276 277 278 278 279 279 279 279 280 280 281 282 282 283 284 285 285 285 285 285 285 286 286 285 285 285 285
277 276 277 277 277 276 275 274 274 274 274 274 275 276 277 278 278 278 278 278 279 279 280 281 282 282 282 283 283 284 284 284 284 284 284 285 285 285
279 278 276 276 275 275 275 275 274 274 274 274 274 274 274 275 276 277 277 278 278 277 278 280 281 282 282 282 282 282 283 283 283 283 283 283 283 284
279 279 278 277 276 276 275 275 274 274 274 274 274 274 274 274 274 275 276 276 277 276 278 280 280 281 281 282 282 282 282 282 282 282 282 282 282 282

GFSNE_850_thetae_030.txt.gz
Theta_e
293 292 292 291 290 290 290 289 289 288 288 288 288 287 287 287 287 287 287 288 288 288 289 288 289 288 288 290 290 294 299 300 303 306 310 310 309 309
292 291 291 290 290 289 289 288 288 288 287 287 287 287 287 286 286 286 287 287 287 287 288 288 288 287 287 288 290 290 292 297 298 299 303 309 308 308
291 291 290 290 289 288 288 287 287 287 286 286 286 286 286 286 286 286 286 287 288 288 289 288 288 286 287 287 288 290 290 293 296 298 300 303 303 308
291 290 290 288 288 287 287 286 286 285 285 285 285 285 285 284 285 285 285 286 287 288 288 288 288 286 287 287 287 287 289 290 294 298 299 300 302 303
289 289 288 287 286 286 285 285 284 284 284 284 284 284 284 284 284 285 286 286 287 287 287 287 287 286 286 286 286 286 288 289 293 295 298 298 301 303
288 287 285 284 284 283 283 283 283 283 283 283 283 283 283 283 284 284 284 285 286 287 287 287 287 286 285 285 285 286 288 289 293 294 297 300 303 302
286 285 284 283 282 281 281 281 281 282 282 282 283 283 283 283 284 284 284 284 284 285 287 288 288 288 288 288 288 287 288 290 292 292 295 297 302 305
284 283 283 282 282 280 280 280 280 281 281 282 282 282 283 283 283 284 284 284 285 285 286 287 287 287 287 288 289 289 289 289 291 292 293 295 295 297
283 283 282 282 281 281 280 280 281 281 281 281 281 282 283 283 283 283 283 284 284 285 285 285 286 286 287 287 286 287 289 290 291 292 292 294 295 292
283 282 282 281 281 279 279 280 281 281 281 281 281 281 281 282 282 282 283 283 283 284 285 285 285 285 286 286 286 286 288 290 291 291 292 292 293 295
282 282 281 280 279 278 278 279 280 280 281 280 279 280 280 281 281 281 282 283 284 284 285 285 285 285 285 286 286 286 286 289 291 291 291 291 292 293
282 282 280 278 278 277 277 278 279 279 279 279 280 281 281 282 282 282 282 283 283 283 284 285 285 285 286 286 287 287 286 287 290 290 291 291 291 292
281 281 280 278 277 276 276 277 277 277 278 279 280 281 282 282 282 283 283 283 283 284 284 284 285 285 285 285 287 287 287 287 287 288 290 291 291 291
280 281 279 277 277 276 276 276 276 277 278 279 279 280 281 281 281 283 283 284 284 283 284 284 284 284 285 285 286 287 287 287 288 287 289 288 289 291
280 279 280 278 277 277 276 276 276 277 277 278 278 279 279 280 282 283 284 285 285 284 284 283 284 284 285 285 286 287 287 288 287 288 288 289 289 289
280 279 279 279 278 277 277 277 276 275 276 277 277 278 279 280 281 282 283 285 286 287 286 285 285 284 284 285 286 286 287 287 287 287 287 287 288 289
280 279 279 279 278 278 278 277 277 275 276 276 277 278 278 279 280 281 282 283 284 284 285 286 285 285 285 285 285 285 286 287 287 287 286 287 286 287
280 280 280 279 278 278 278 277 277 276 275 275 276 277 277 278 279 280 281 281 282 283 284 285 286 285 285 285 285 286 287 287 287 287 286 287 288 288
280 281 280 279 279 278 278 277 277 276 276 275 275 276 276 277 278 279 279 280 281 282 283 283 285 285 287 287 286 285 287 287 286 286 286 286 287 288
280 280 280 279 279 278 278 277 276 276 275 275 275 274 275 275 277 278 278 278 279 281 282 283 283 282 283 285 286 285 285 286 286 286 286 286 286 286
282 281 280 279 279 278 278 277 277 277 277 276 275 275 274 274 275 276 277 277 278 280 280 281 281 282 283 284 285 285 285 285 285 285 285 285 286 286
281 281 281 280 279 278 277 277 277 276 276 276 275 275 274 274 275 275 276 277 277 277 278 279 280 282 283 283 284 283 283 283 284 284 284 285 285 287
281 281 281 280 279 278 278 278 277 277 276 277 276 275 275 274 274 275 274 275 276 276 277 279 280 281 282 282 282 283 283 283 283 283 283 283 283 283

GFSNE_850_thetae_033.txt.gz
Theta_e
296 295 295 294 293 292 292 291 290 290 290 289 289 289 289 288 288 288 288 288 287 287 287 288 288 288 288 288 291 290 290 290 294 299 301 307 310 312
295 294 293 293 292 291 291 290 290 289 289 289 288 288 288 288 287 287 287 287 287 287 288 288 287 288 288 287 288 289 289 290 290 293 297 300 302 310
294 293 293 292 291 291 290 289 289 288 288 288 287 287 287 287 286 286 286 286 286 286 287 287 288 289 289 288 287 287 289 288 289 290 293 296 299 303
292 292 291 291 290 289 288 288 287 287 287 286 286 286 286 286 285 285 285 286 286 287 287 287 288 289 288 288 287 286 287 288 288 289 291 295 298 298
291 291 290 289 288 287 286 286 285 285 285 285 285 284 284 284 284 285 285 285 286 286 287 287 287 287 287 287 287 285 286 287 287 288 289 294 297 298
290 289 288 287 286 285 284 284 284 284 284 283 283 284 284 284 285 285 285 285 285 285 286 286 288 288 288 287 286 285 285 286 287 288 290 294 295 297
288 287 286 285 284 283 282 282 282 282 282 282 283 283 284 284 284 284 284 284 285 285 286 286 287 288 288 288 288 288 287 286 286 288 291 293 295 297
287 286 285 285 284 283 283 282 281 281 281 282 282 282 282 283 283 284 284 284 284 285 285 286 286 287 289 289 289 289 289 289 287 288 291 292 294 296
286 285 285 284 284 283 282 281 281 281 281 282 282 282 283 282 282 283 283 284 284 284 284 285 285 286 287 288 287 287 287 287 287 290 291 292 293 295
286 285 284 284 283 281 280 280 281 281 282 282 282 281 281 281 281 282 282 283 283 283 284 285 285 285 286 286 286 286 286 286 287 289 291 292 292 293
285 284 284 282 281 279 278 279 279 280 281 281 280 280 280 281 282 282 282 283 284 284 284 285 285 285 285 286 286 286 286 286 287 289 291 292 292 293
285 284 283 283 281 278 277 277 278 280 279 279 279 281 281 282 283 283 283 284 284 284 284 285 286 286 286 286 286 286 287 287 286 288 291 290 291 291
283 283 283 282 280 278 277 277 278 276 277 279 280 281 281 282 282 283 283 283 284 285 284 284 285 285 286 286 286 287 287 288 288 287 291 290 291 291
282 282 282 280 280 279 278 277 276 278 279 279 280 280 281 281 281 282 283 284 285 285 285 285 285 285 285 286 286 287 287 287 289 288 289 290 291 293
281 281 281 281 281 280 278 279 278 279 278 279 279 279 280 280 281 282 283 284 286 286 285 285 284 285 285 285 286 287 288 288 287 288 289 290 290 291
282 282 281 281 281 280 280 280 279 279 277 278 278 279 279 280 280 281 282 283 284 286 286 286 285 285 285 285 286 286 287 288 288 287 288 288 290 290
282 281 281 282 281 281 281 280 280 279 279 277 277 278 279 279 280 280 281 282 283 284 285 285 286 285 285 285 285 286 287 287 288 288 287 288 287 288
282 281 282 282 281 281 281 281 280 279 278 277 277 278 278 278 279 280 280 281 282 282 283 284 285 286 285 285 285 286 287 287 288 287 286 288 288 288
281 281 282 282 281 281 281 281 280 279 278 278 277 278 277 277 278 279 280 280 280 281 282 284 284 284 285 287 287 285 286 287 288 287 287 287 288 289
281 282 282 282 281 281 281 281 280 278 278 277 277 277 277 277 277 278 279 279 279 281 282 282 283 282 283 284 287 286 286 286 287 287 287 287 287 287
282 283 283 283 282 281 281 280 278 278 278 277 277 277 277 277 277 277 278 278 279 280 280 281 281 282 283 285 286 285 285 285 286 286 286 287 287 286
283 282 283 283 282 281 280 279 279 279 278 278 277 276 276 276 277 277 277 277 278 278 278 279 281 282 283 284 285 284 284 284 284 285 285 285 287 287
283 282 282 282 282 281 280 279 279 278 278 277 277 276 276 276 277 277 277 277 277 277 277 279 280 281 282 283 283 284 283 283 283 284 284 284 284 285